Regional Weather Roundup
Issued by NWS

Home | Current Version | Previous Version | Text Only | Print | Product List | Glossary On
Versions: 1 2 3 4 5 6 7 8 9 10 11 12 13 14 15 16 17 18 19 20 21 22 23 24 25 26 27
000
ASUS45 KBOU 201406
RWRCO

WEATHER ROUNDUP FOR COLORADO
NATIONAL WEATHER SERVICE DENVER/BOULDER CO
800 AM MDT SUN APR 20 2014

NOTE: "FAIR" INDICATES FEW OR NO CLOUDS BELOW 12000 FEET WITH NO
SIGNIFICANT WEATHER AND/OR OBSTRUCTIONS TO VISIBILITY.

COZ001>005-013-030-031-201500-
...NORTHWEST COLORADO...

CITY           SKY/WX    TMP DP  RH WIND       PRES   REMARKS
CRAIG          PTSUNNY   37  35  92 CALM      30.18R
HAYDEN         PTSUNNY   39  36  87 SE9       30.20R
MEEKER         MOSUNNY   41  35  79 E5        30.18R
MOUNT WERNER   PTSUNNY   37  32  81 W9        30.30S
STEAMBOAT SPGS PTSUNNY   37  34  88 CALM      30.20R
WALDEN         MOSUNNY   34  30  86 CALM      30.21R
$$

COZ006>008-011-201500-
...WEST CENTRAL VALLEYS...

CITY           SKY/WX    TMP DP  RH WIND       PRES   REMARKS
GRAND JUNCTION SUNNY     47  40  76 SE8       30.13R
MONTROSE       SUNNY     46  39  76 S3        30.18R
EAGLE          MOSUNNY   45  39  81 CALM      30.22R
RIFLE          PTSUNNY   43  37  79 E3        30.18R
DELTA          SUNNY     47  38  71 CALM      30.16R
NUCLA          NOT AVBL
$$

COZ017>023-064>068-201500-
...SOUTHWEST COLORADO...

CITY           SKY/WX    TMP DP  RH WIND       PRES   REMARKS
DURANGO        MOSUNNY   41  33  73 CALM      30.15R
CORTEZ         SUNNY     44  36  73 NE9       30.16R
PAGOSA SPRINGS MOSUNNY   37  35  92 CALM      30.19R
TELLURIDE      MOSUNNY   37  32  81 CALM      30.25R
WOLF CREEK PAS PTSUNNY   30  27  86 N7        30.30R WCI  23
$$

COZ009-010-012-014-032>034-037-058>063-201500-
...CENTRAL COLORADO...

CITY           SKY/WX    TMP DP  RH WIND       PRES   REMARKS
ASPEN          PTSUNNY   42  33  70 S3        30.21R
BUENA VISTA    MOSUNNY   44  35  71 NE3       30.19S
COPPER MTN     SNOW      34  30  86 W16       30.33S VSB<1/4 WCI  23
BERTHOUD PASS  HAZE      27  18  69 N6G17     30.36R VSB<1/4 WCI  20
COTTONWOOD PAS MOSUNNY   41  30  65 NW6       30.25R
GUNNISON       PTSUNNY   32  27  80 CALM      30.25R
KREMMLING      PTSUNNY   36  34  93 CALM      30.24R
LEADVILLE      CLOUDY    33  30  88 NE6       30.25R WCI  28
MONARCH PASS   PTSUNNY   28  28 100 NW8       30.41R FOG     WCI  20
SALIDA         MOSUNNY   43  38  80 NW5       30.26R
SUNLIGHT       MOSUNNY   36  34  93 CALM      30.32R
WILKERSON PASS MOSUNNY   32  28  86 N8        30.31R WCI  25
$$

COZ069>075-201500-
...SAN LUIS VALLEY/SANGRE DE CRISTO MOUNTAINS...

CITY           SKY/WX    TMP DP  RH WIND       PRES   REMARKS
ALAMOSA        CLOUDY    43  40  89 E5        30.16R
LA VETA PASS   MIX PCPN  34  34 100 NW5       30.23S VSB 1/4 WCI  30
SAGUACHE       PTSUNNY   46  34  61 NW14      30.17S
$$

COZ035-036-038>040-201500-
...NORTHERN COLORADO FRONT RANGE...

CITY           SKY/WX    TMP DP  RH WIND       PRES   REMARKS
DENVER INTL AP MOSUNNY   49  41  74 W9        30.07R
DMNS CITY PARK   N/A     49  40  73 SW2       30.07S
AURORA         PTSUNNY   48  39  71 SW9       30.08R
FRONT RANGE AP NOT AVBL
ERIE MUNI ARPT MOSUNNY   49  42  79 CALM      30.07R
BOULDER MUN AP MOSUNNY   48  43  81 CALM      30.07R
CENTENNIAL     PTSUNNY   48  39  71 W8        30.09R
BROOMFIELD     MOSUNNY   48  41  76 CALM      30.08R
FORT COLLINS   SUNNY     46  39  76 CALM      30.07S
LONGMONT       SUNNY     50  44  80 CALM      30.08R
$$

COZ041-046-047-076>085-087-088-201500-
...PIKES PEAK/PALMER DIVIDE AND SOUTHERN FOOTHILLS...

CITY           SKY/WX    TMP DP  RH WIND       PRES   REMARKS
COLO. SPRINGS  CLOUDY    50  37  61 N7        30.09R
A. F. ACADEMY  PTSUNNY   46  38  75 NW2       30.10R
ELLICOTT       NOT AVBL
FALCON         CLOUDY    50  35  56 N8        30.12R
FORT CARSON    PTSUNNY   49  38  66 NW6       30.07R
LIMON          CLOUDY    48  42  80 N12       30.06R
MONUMENT HILL  CLOUDY    50  36  57 CALM      30.11R
TRINIDAD       LGT RAIN  51  45  79 NW7       30.08R
$$

COZ042>045-048>051-090-091-201500-
...NORTHEAST COLORADO...

CITY           SKY/WX    TMP DP  RH WIND       PRES   REMARKS
GREELEY ARPT   SUNNY     45  37  76 N3        30.06R
AKRON          PTSUNNY   51  43  74 NE5       30.05R
BURLINGTON     PTSUNNY   50  45  83 N10       30.01S
WRAY           PTSUNNY   48  44  87 NW3       30.03R
STERLING       PTSUNNY   48  43  81 W7        30.04R
HOLYOKE        PTSUNNY   54  46  76 CALM      30.04R
FORT MORGAN    CLOUDY    44  41  89 SE5       30.06R
$$

COZ086-089-092>099-201500-
...SOUTHEAST COLORADO...

CITY           SKY/WX    TMP DP  RH WIND       PRES   REMARKS
PUEBLO         CLOUDY    56  42  59 W6        30.03R
LA JUNTA       CLOUDY    57  44  62 NW10      30.01R
LAMAR          CLOUDY    52  46  80 NW6       29.95R
SPRINGFIELD      N/A     58  45  62 W15       29.99S
$$



USA.gov is the U.S. government's official web portal to all federal, state and local government web resources and services.